Location: Croydon
(51.3762°N, 0.0982°W)
Time: 10:16:47
(UTC+00:00)

Altair - Pass Details

Date: 20 November 2019
Orbit: 1502 x 1682 km, 47.2° (Epoch: 05 December)

Event Time Altitude Azimuth Distance (km) Brightness Sun altitude
Rises 03:34:09 0° 236° (SW) 4,641 - -35.6°
Reaches altitude 10° 03:37:15 10° 232° (SW) 3,653 - -35.1°
Exits shadow 03:44:49 52° 185° (S) 1,812 7.6 -34.0°
Maximum altitude 03:46:04 55° 158° (SSE) 1,754 7.7 -33.8°
Drops below altitude 10° 03:55:00 10° 84° (E) 3,692 10.3 -32.4°
Sets 03:58:08 0° 80° (E) 4,694 11.2 -31.9°
